San Martin, CA

7:45 AM PST on December 08, 2016 (GMT -0800)
San Martin

Weather History for KE16 - May, 2014

Change the Weather History Date:

Saturday, May 17, 2014

  Actual Average (KWVI) Record (KWVI)
Temperature  
Mean Temperature 64 °F -  
Max Temperature 78 °F 70 °F 83 °F (2008)
Min Temperature 50 °F 47 °F 42 °F (1999)
Degree Days  
Heating Degree Days 1    
Growing Degree Days 14 (Base 50)    
Moisture  
Dew Point 45 °F    
Average Humidity 54    
Maximum Humidity 88    
Minimum Humidity 29    
Precipitation  
Precipitation 0.00 in - - ()
Sea Level Pressure  
Sea Level Pressure 30.00 in    
Wind  
Wind Speed 6 mph (NW)    
Max Wind Speed 18 mph    
Max Gust Speed 26 mph    
Visibility 10 miles    
Events      
Averages and records for this station are not official NWS values.
T = Trace of Precipitation, MM = Missing Value Source: NWS Daily Summary

Daily Weather History Graph

Daily Weather History Graph

Search for Another Location

Airport or City:

Trip Planner

Search our weather history database for the weather conditions in past years. The results will help you decide how hot, cold, wet, or windy it might be!

Date:

Astronomy

May. 17, 2014 Rise Set
Actual Time 5:56 AM PDT 8:09 PM PDT
Civil Twilight 5:27 AM PDT 8:38 PM PDT
Nautical Twilight 4:51 AM PDT 9:14 PM PDT
Astronomical Twilight 4:12 AM PDT 9:53 PM PDT
Moon 11:15 PM PDT (5/17) 8:44 AM PDT (5/17)
Length of Visible Light 15h 11m
Length of Day
14h 13m
Waning Gibbous, 88% of the Moon is Illuminated
May 17
Waning Gibbous
May 21
Last Quarter
May 28
New
Jun 5
First Quarter
Jun 12
Full

Hourly Weather History & Observations

Time (PDT) Temp. Dew Point Humidity Pressure Visibility Wind Dir Wind Speed Gust Speed Precip Events Conditions
12:15 AM 59.0 °F 46.4 °F 63% 30.04 in 10.0 mi NNW 4.6 mph - N/A   Unknown
12:35 AM 59.0 °F 46.4 °F 63% 30.03 in 10.0 mi NNW 3.5 mph - N/A   Unknown
12:55 AM 59.0 °F 46.4 °F 63% 30.03 in 10.0 mi North 4.6 mph - N/A   Unknown
1:15 AM 57.2 °F 46.4 °F 67% 30.03 in 10.0 mi North 3.5 mph - N/A   Unknown
1:35 AM 57.2 °F 46.4 °F 67% 30.02 in 10.0 mi Calm Calm - N/A   Unknown
1:55 AM 57.2 °F 46.4 °F 67% 30.02 in 10.0 mi Calm Calm - N/A   Unknown
2:15 AM 55.4 °F 46.4 °F 72% 30.02 in 10.0 mi NNE 3.5 mph - N/A   Unknown
2:35 AM 55.4 °F 48.2 °F 77% 30.02 in 10.0 mi NNE 3.5 mph - N/A   Unknown
2:55 AM 55.4 °F 46.4 °F 72% 30.02 in 10.0 mi Calm Calm - N/A   Unknown
3:15 AM 55.4 °F 46.4 °F 72% 30.02 in 10.0 mi Calm Calm - N/A   Unknown
3:35 AM 55.4 °F 46.4 °F 72% 30.02 in 10.0 mi Calm Calm - N/A   Unknown
3:55 AM 55.4 °F 46.4 °F 72% 30.02 in 10.0 mi Calm Calm - N/A   Unknown
4:15 AM 53.6 °F 46.4 °F 77% 30.02 in 10.0 mi Calm Calm - N/A   Unknown
4:35 AM 53.6 °F 48.2 °F 82% 30.02 in 10.0 mi Calm Calm - N/A   Unknown
4:55 AM 51.8 °F 46.4 °F 82% 30.02 in 10.0 mi Calm Calm - N/A   Unknown
5:15 AM 50.0 °F 46.4 °F 87% 30.02 in 10.0 mi Calm Calm - N/A   Unknown
5:35 AM 51.8 °F 46.4 °F 82% 30.03 in 10.0 mi Calm Calm - N/A   Unknown
5:55 AM 51.8 °F 46.4 °F 82% 30.03 in 10.0 mi Calm Calm - N/A   Unknown
6:15 AM 50.0 °F 46.4 °F 87% 30.03 in 10.0 mi Calm Calm - N/A   Unknown
6:35 AM 50.0 °F 46.4 °F 87% 30.03 in 9.0 mi Calm Calm - N/A   Unknown
6:55 AM 51.8 °F 48.2 °F 88% 30.03 in 10.0 mi Calm Calm - N/A   Unknown
7:15 AM 53.6 °F 48.2 °F 82% 30.03 in 10.0 mi Calm Calm - N/A   Unknown
7:35 AM 53.6 °F 48.2 °F 82% 30.03 in 10.0 mi Calm Calm - N/A   Unknown
7:55 AM 55.4 °F 50.0 °F 82% 30.04 in 10.0 mi Calm Calm - N/A   Unknown
8:15 AM 57.2 °F 50.0 °F 77% 30.04 in 10.0 mi ESE 3.5 mph - N/A   Unknown
8:35 AM 59.0 °F 50.0 °F 72% 30.03 in 9.0 mi SE 4.6 mph - N/A   Unknown
8:55 AM 59.0 °F 50.0 °F 72% 30.03 in 10.0 mi SE 3.5 mph - N/A   Unknown
9:15 AM 62.6 °F 48.2 °F 59% 30.03 in 10.0 mi SSE 4.6 mph - N/A   Unknown
9:35 AM 62.6 °F 48.2 °F 59% 30.03 in 10.0 mi Calm Calm - N/A   Clear
9:55 AM 64.4 °F 48.2 °F 56% 30.02 in 10.0 mi SE 3.5 mph - N/A   Clear
10:15 AM 66.2 °F 46.4 °F 49% 30.02 in 10.0 mi Calm Calm - N/A   Clear
10:35 AM 68.0 °F 41.0 °F 37% 30.02 in 10.0 mi NNW 10.4 mph - N/A   Clear
10:55 AM 71.6 °F 42.8 °F 35% 30.02 in 10.0 mi NW 6.9 mph - N/A   Clear
11:15 AM 71.6 °F 41.0 °F 33% 30.01 in 10.0 mi Calm Calm - N/A   Clear
11:35 AM 73.4 °F 41.0 °F 31% 30.01 in 10.0 mi NNW 8.1 mph - N/A   Clear
11:55 AM 73.4 °F 41.0 °F 31% 30.01 in 10.0 mi NNW 9.2 mph 16.1 mph N/A   Clear
12:15 PM 75.2 °F 41.0 °F 29% 30.00 in 10.0 mi NNW 10.4 mph 18.4 mph N/A   Clear
12:35 PM 75.2 °F 42.8 °F 31% 30.00 in 10.0 mi NNW 12.7 mph 19.6 mph N/A   Clear
12:55 PM 75.2 °F 42.8 °F 31% 30.00 in 10.0 mi North 9.2 mph - N/A   Clear
1:15 PM 77.0 °F 42.8 °F 29% 29.99 in 10.0 mi NW 12.7 mph 20.7 mph N/A   Clear
1:35 PM 77.0 °F 42.8 °F 29% 29.99 in 10.0 mi NW 11.5 mph 19.6 mph N/A   Clear
1:55 PM 77.0 °F 44.6 °F 32% 29.99 in 10.0 mi NNW 15.0 mph 19.6 mph N/A   Clear
2:15 PM 77.0 °F 44.6 °F 32% 29.98 in 10.0 mi NNW 16.1 mph 20.7 mph N/A   Clear
2:35 PM 78.8 °F 46.4 °F 32% 29.98 in 10.0 mi NNW 17.3 mph - N/A   Clear
2:55 PM 77.0 °F 44.6 °F 32% 29.97 in 10.0 mi NNW 16.1 mph 24.2 mph N/A   Clear
3:15 PM 77.0 °F 44.6 °F 32% 29.97 in 10.0 mi NW 13.8 mph 24.2 mph N/A   Clear
3:35 PM 77.0 °F 44.6 °F 32% 29.96 in 9.0 mi NW 17.3 mph 26.5 mph N/A   Clear
3:55 PM 77.0 °F 44.6 °F 32% 29.96 in 10.0 mi NW 13.8 mph 21.9 mph N/A   Clear
4:15 PM 77.0 °F 44.6 °F 32% 29.95 in 10.0 mi NW 18.4 mph 26.5 mph N/A   Clear
4:35 PM 75.2 °F 46.4 °F 36% 29.95 in 10.0 mi NW 17.3 mph 26.5 mph N/A   Clear
4:55 PM 75.2 °F 46.4 °F 36% 29.95 in 10.0 mi NNW 13.8 mph 26.5 mph N/A   Clear
5:15 PM 73.4 °F 44.6 °F 36% 29.95 in 10.0 mi NW 18.4 mph 23.0 mph N/A   Clear
5:35 PM 73.4 °F 46.4 °F 38% 29.95 in 10.0 mi NW 15.0 mph 24.2 mph N/A   Unknown
5:55 PM 71.6 °F 46.4 °F 41% 29.95 in 10.0 mi NW 12.7 mph 24.2 mph N/A   Unknown
6:15 PM 71.6 °F 46.4 °F 41% 29.95 in 10.0 mi NNW 15.0 mph 25.3 mph N/A   Unknown
6:35 PM 68.0 °F 46.4 °F 46% 29.96 in 10.0 mi NW 16.1 mph 26.5 mph N/A   Unknown
6:55 PM 68.0 °F 46.4 °F 46% 29.96 in 10.0 mi NNW 16.1 mph 26.5 mph N/A   Unknown
7:15 PM 66.2 °F 46.4 °F 49% 29.97 in 10.0 mi NW 13.8 mph 23.0 mph N/A   Unknown
7:35 PM 66.2 °F 46.4 °F 49% 29.97 in 10.0 mi NW 15.0 mph 20.7 mph N/A   Unknown
7:55 PM 64.4 °F 44.6 °F 49% 29.97 in 10.0 mi NW 12.7 mph 24.2 mph N/A   Unknown
8:15 PM 64.4 °F 42.8 °F 45% 29.98 in 10.0 mi NW 15.0 mph 20.7 mph N/A   Unknown
8:35 PM 64.4 °F 41.0 °F 42% 29.98 in 10.0 mi NW 16.1 mph 20.7 mph N/A   Unknown
9:15 PM 62.6 °F 41.0 °F 45% 29.99 in 10.0 mi NW 10.4 mph 16.1 mph N/A   Unknown
9:35 PM 62.6 °F 41.0 °F 45% 29.99 in 10.0 mi NW 11.5 mph - N/A   Unknown
9:55 PM 62.6 °F 42.8 °F 48% 30.00 in 10.0 mi NW 8.1 mph - N/A   Unknown
10:15 PM 60.8 °F 42.8 °F 52% 30.01 in 10.0 mi WNW 10.4 mph - N/A   Unknown
10:35 PM 60.8 °F 42.8 °F 52% 30.01 in 10.0 mi NW 6.9 mph - N/A   Unknown
10:55 PM 60.8 °F 42.8 °F 52% 30.01 in 10.0 mi NW 10.4 mph 16.1 mph N/A   Unknown
11:15 PM 60.8 °F 42.8 °F 52% 30.01 in 10.0 mi WNW 8.1 mph - N/A   Unknown
11:55 PM 59.0 °F 42.8 °F 55% 30.01 in 10.0 mi WNW 6.9 mph - N/A   Unknown